Home > Weather > Rüsselsheim > Past weeks

Flag for Germany Weather for the Past 2 Weeks in Rüsselsheim, Hesse, Germany

Now
54 °F

Clear.


Feels Like: 52 °F
Forecast: 44 / 66 °F
Wind: 7 mph from North

Location: Wiesbaden Airport

Current Time: May 2, 2016 at 1:47:25 AM

Latest Report: May 2, 2016 at 12:58 AM


Visibility: N/A

Pressure: 30.25 "Hg

Humidity: 63%

Dew Point: 41 °F

Location of RüsselsheimLocation

Historic Weather in Rüsselsheim — Graph

°F

Rüsselsheim Temperature Yesterday

Maximum temperature yesterday: 66 °F (at 5:58 PM)
Minimum temperature yesterday: 45 °F (at 12:58 AM)
Average temperature yesterday: 54 °F

High & Low Weather Summary for the Past Weeks

 TemperatureHumidityPressure
High67 °F (Apr 21, 5:58 PM)94% (Apr 17, 1:03 AM)30.46 "Hg (Apr 17, 1:03 AM)
Low31 °F (Apr 24, 6:58 AM)27% (Apr 20, 3:58 PM)29.58 "Hg (Apr 26, 1:03 AM)
Average47 °F65%30.01 "Hg
* Reported Apr 16 11:58 PM — May 1 11:58 PM, Rüsselsheim, Weather by CustomWeather, © 2016

Note: Actual official high and low records may vary slightly from our data, if they occured in-between our weather recording intervals... More about our weather records

Advertising

Rüsselsheim Weather History for the Previous 24 Hours

Scroll right to see more
 ConditionsComfort  
Time TempWeatherWind HumidityBarometerVisibility
11:58 PM
Sun, May 1
54 °FClear.6 mph63%30.26 "HgN/A
10:58 PM55 °FClear.8 mph55%30.25 "HgN/A
9:58 PM57 °FClear.9 mph51%30.24 "HgN/A
8:58 PM59 °FSunny.7 mph48%30.22 "HgN/A
7:58 PM63 °FSunny.10 mph45%30.20 "HgN/A
6:58 PM65 °FSunny.10 mph42%30.18 "HgN/A
5:58 PM66 °FSunny.14 mph37%30.16 "HgN/A
4:58 PM64 °FPassing clouds.13 mph40%30.15 "HgN/A
3:58 PM65 °FSunny.10 mph41%30.14 "HgN/A
2:58 PM64 °FSunny.10 mph40%30.14 "HgN/A
1:58 PM63 °FSunny.12 mph45%30.14 "HgN/A
12:58 PM59 °FSunny.9 mph59%30.14 "HgN/A
11:58 AM57 °FSunny.15 mph63%30.14 "HgN/A
10:58 AM53 °FSunny.13 mph66%30.14 "HgN/A
9:58 AM51 °FSunny.17 mph70%30.13 "HgN/A
8:58 AM48 °FSunny.16 mph76%30.12 "HgN/A
7:58 AM46 °FSunny.14 mph77%30.11 "HgN/A
6:58 AM45 °FClear.12 mph81%30.09 "HgN/A
5:58 AM45 °FPassing clouds.15 mph81%30.08 "HgN/A
4:58 AM45 °FClear.10 mph81%30.07 "HgN/A
3:58 AM45 °FClear.10 mph82%30.07 "HgN/A
2:58 AM46 °FPassing clouds.13 mph82%30.06 "HgN/A
1:58 AM45 °FPassing clouds.13 mph86%30.05 "HgN/A
Weather by CustomWeather, © 2016

See weather overviewHow to use our weather pages